Regional Weather Roundup
Issued by NWS

Home | Current Version | Previous Version | Graphics & Text | Print | Product List | Glossary Off
Versions: 1 2 3 4 5 6 7 8 9 10 11 12 13 14 15 16 17 18 19 20 21 22 23 24 25 26 27 28 29 30 31 32 33 34 35 36 37 38 39 40 41 42 43 44 45 46 47 48 49 50

000
ASUS43 KMKX 011611
RWRWI

WISCONSIN REGIONAL WEATHER ROUNDUP
NATIONAL WEATHER SERVICE MILWAUKEE/SULLIVAN WI
1000 AM CST SUN FEB 01 2015

NOTE: "FAIR" INDICATES FEW OR NO CLOUDS BELOW 12,000 FEET WITH NO
SIGNIFICANT WEATHER AND/OR OBSTRUCTIONS TO VISIBILITY.

WIZ001-002-006>008-014>016-023>028-011700-
NORTHWEST WISCONSIN

CITY           SKY/WX    TMP DP  RH WIND       PRES   REMARKS
SUPERIOR ARPT  PTSUNNY    8   1  73 NE9G21    30.40S WCI  -5
ASHLAND        LGT SNOW  10   5  80 N20       30.35F VSB 1   WCI  -9
HAYWARD        CLOUDY     9   0  67 N10       30.28F WCI  -5
SIREN          CLOUDY    11   1  64 E12G21    30.30S WCI  -3
CUMBERLAND     CLOUDY    10   0  61 NE15      30.23F WCI  -6
RICE LAKE      CLOUDY    10   0  64 NE15      30.26F WCI  -6
CHETEK         CLOUDY    10   0  65 MISG      30.25S
LADYSMITH      CLOUDY     9   1  67 NE14G23   30.25F WCI  -7
EAU CLAIRE     CLOUDY    11   1  64 NE13G21   30.22R WCI  -4
MENOMONIE      CLOUDY    12   2  64 N15G22    30.23S WCI  -4
NEW RICHMOND   CLOUDY    11   2  66 NE15G23   30.25S WCI  -5
OSCEOLA        CLOUDY    13   1  60 NE16G23   30.30S WCI  -3
$$

WIZ003>005-009-010-017-018-011700-
NORTH CENTRAL WISCONSIN

CITY           SKY/WX    TMP DP  RH WIND       PRES   REMARKS
MANITOWISH WTR CLOUDY     5  -1  75 NE8       30.24S WCI  -8
ARBOR VITAE    PTSUNNY    9   2  74 NE9       30.22F WCI  -4
WOODRUFF       PTSUNNY    9   2  74 NE9       30.22F WCI  -4
RHINELANDER    CLOUDY     7  -1  70 NE12G20   30.19F WCI  -8
EAGLE RIVER    CLOUDY     7  -2  68 NE15G22   30.22S WCI -11
LAND O LAKES   CLOUDY     6   1  77 NE8       30.24F WCI  -7
PHILLIPS       PTSUNNY    6  -1  72 NE17      30.21F WCI -13
TOMAHAWK       CLOUDY     8   0  69 NE10G16   30.20F WCI  -6
MEDFORD        CLOUDY     8   1  70 NE18G24   30.17S WCI -11
MERRILL        CLOUDY     9   2  71 NE13G20   30.20R WCI  -6
$$

WIZ029-030-035-036-043>047-011700-
CENTRAL WISCONSIN

CITY           SKY/WX    TMP DP  RH WIND       PRES   REMARKS
WAUSAU         CLOUDY    10   2  69 NE12G18   30.18R WCI  -5
MOSINEE        CLOUDY    10   3  72 NE16      30.17S WCI  -7
MARSHFIELD     CLOUDY    12   3  67 NE15      30.16S WCI  -4
STEVENS POINT  CLOUDY    10   3  73 NE16G23   30.17F WCI  -8
WAUPACA        LGT SNOW  15   8  76 NE15G22   30.18F WCI  -1
WAUTOMA        LGT SNOW  13   9  84 NE15G24   30.14F VSB 3/4 WCI  -3
WISC RAPIDS    LGT SNOW  12   5  73 NE12G24   30.17S VSB 1   WCI  -2
CAMP DOUGLAS   LGT SNOW  14  12  92 NE13G23   30.12F BLWGSNOWWCI   0
$$

WIZ011>013-019>022-031-037>040-048>050-011700-
NORTHEAST WISCONSIN

CITY           SKY/WX    TMP DP  RH WIND       PRES   REMARKS
ANTIGO         CLOUDY     8   3  78 NE16      30.18R WCI -10
SHAWANO        CLOUDY    13   3  64 NE16G23   30.24S WCI  -3
OCONTO         CLOUDY    10   2  73 NE12G21   30.27S WCI  -5
STURGEON BAY   CLOUDY    10   5  79 NE14      30.25S WCI  -5
GREEN BAY      LGT SNOW  10   5  80 NE31G37   30.22S WCI -13
MANITOWOC      LGT SNOW  18  15  88 NE12G23   30.17F VSB 1   WCI   5
APPLETON       LGT SNOW  12   7  79 NE17G25   30.17S VSB 1   WCI  -5
CLINTONVILLE   CLOUDY    12   3  67 NE17G26   30.21F WCI  -5
OSHKOSH        SNOW      12   8  84 NE24G33   30.13F VSB 1/2 WCI  -8
$$

WIZ032>034-041-042-053>061-011700-
SOUTHWEST WISCONSIN

CITY           SKY/WX    TMP DP  RH WIND       PRES   REMARKS
LA CROSSE      LGT SNOW  16   9  74 N10G20    30.13F WCI   4
SPARTA         LGT SNOW  14  10  81 NE13G20   30.13F WCI   0
VIROQUA        CLOUDY    14  10  84 NE20G30   30.03F WCI  -4
BOSCOBEL       LGT SNOW  18  12  77 NE10G24   30.03F VSB 3/4 WCI   6
PRAIRIE DU CHI MIX PCPN  18  12  78 N12G23    30.01F VSB 1   WCI   5
PLATTEVILLE    CLOUDY    19  16  89 NE30G38   29.90F VSB 3/4 WCI  -1
$$

WIZ056-057-062-063-064-067-068-011700-
SOUTH CENTRAL WISCONSIN

CITY           SKY/WX    TMP DP  RH WIND       PRES   REMARKS
REEDSBURG      LGT SNOW  14  10  84 NE14G20   30.07F WCI  -1
BARABOO/DELLS  LGT SNOW  13   9  85 NE16G24   30.06F WCI  -3
LONE ROCK      LGT SNOW  17  11  77 NE18G32   30.04F WCI   1
MINERAL POINT  LGT SNOW  19  14  79 NE23G31   29.94F VSB 3/4 WCI   2
MADISON        LGT SNOW  16  12  84 NE17G28   30.03S VSB 1   WCI   0
MIDDLETON      CLOUDY    18  13  80 NE24G30   30.02F WCI   0
WATERTOWN      LGT SNOW  20  17  88 NE23G29   30.01F WCI   4
MONROE         LGT SNOW  19  18  93 NE24      29.92S WCI   2
JANESVILLE     CLOUDY    25  21  86 NE21G30   29.93F VSB 1   WCI  10
$$

WIZ051-052-058>065-066-070>072-011700-
SOUTHEAST WISCONSIN

CITY           SKY/WX    TMP DP  RH WIND       PRES   REMARKS
MILWAUKEE      SNOW      23  19  85 NE29G37   30.03F VSB 1/4 WCI   6
WAUKESHA       LGT SNOW  21  19  93 NE12G29   30.01F VSB 1   WCI   9
MILWAUKEE/TIMM LGT SNOW  21  19  93 NE12G24   30.05F VSB 3/4 WCI   9
RACINE         SNOW      24  20  84 NE24G31   30.02F VSB 1/4 WCI   8
BURLINGTON     LGT SNOW  22  19  91 NE17G30   29.97F WCI   7
KENOSHA        SNOW      24  21  88 NE26G36   29.98F VSB 1/4 WCI   8
FOND DU LAC    LGT SNOW  15  10  80 N23       30.10F VSB 3/4 WCI  -3
SHEBOYGAN      SNOW      19  14  81 NE22      30.12F VSB 1/2 WCI   2
WEST BEND      LGT SNOW  19  16  86 NE21G29   30.05F WCI   3
JUNEAU         LGT SNOW  17  14  88 N13       30.05F WCI   4
$$

LSZ147-162-011700-
LAKE SUPERIOR

STATION/POSITION TIME  TEMP    WIND        PRES    WAVE
                       AIR SEA DIR/SP/G            HT/PER
                 (UTC) (F)     (DEG/KT/KT) (MB)    (FT/S)
DEVILS ISLAND    1600    9      40/ 16/ 20 1031.7R
PORT WING        1500   12      70/ 12/ 19 1029.5R
SAXON HARBOR     1500   11      CALM  /  1 1028.1R
$$

LMZ867-665-643>646-011700-
LAKE MICHIGAN

STATION/POSITION TIME  TEMP    WIND        PRES    WAVE
                       AIR SEA DIR/SP/G            HT/PER
                 (UTC) (F)     (DEG/KT/KT) (MB)    (FT/S)
NORTHPORT PIER   1530   11      40/ 19/ 23 1025.7F
SISTER BAY       1413    9      20/ 14/ 20   N/A
KEWAUNEE LAKESHO 1500   18      50/ 21/ 27 1022.1R
SHEBOYGAN LAKESH 1600   20      40/ 28/ 31 1021.1F
PORT WASHINGTON  1601   24      50/ 23     1019.3F
MILWAUKEE LAKESH 1500   24      50/ 27/ 30   N/A
KENOSHA   LAKESH 1600   25      60/ 27/ 34 1015.2F
$$

TC  - TEMPERATURE IN CELSIUS
VSB - VISIBILITY IN STATUTE MILES
WCI - WIND CHILL INDEX
HX  - HEAT INDEX



USA.gov is the U.S. government's official web portal to all federal, state and local government web resources and services.